sat.trackr.live / text

‹ back to catalog

STARLINK-35147

NORAD 65637 · 2025-210R

PAYLOAD ACTIVE UNKNOWN

§ Identity

Operator
Country
US
Launch date
2025-09-18
Launch site
AFETR
Launch vehicle
Mass (kg)
RCS (m²)

Purposes: comms

External: N2YO · Heavens-Above · Gunter

§ Orbital elements

Epoch: 2026-05-25T04:07:13.031904Z

Period
93.85 min
Inclination
53.1607°
Eccentricity
0.0001065
Mean motion
15.34405714 rev/d
Perigee alt
462.0 km
Apogee alt
463.4 km
Semi-major
6,840.8 km
B*
6.7648e-4
RAAN
310.9199°
Arg perigee
97.0380°
Mean anomaly
263.0744°
Rev number
3,945

§ Raw data

STARLINK-351471 65637U 25210R   26145.17167861  .00022553  00000+0  67648-3 0  99922 65637  53.1607 310.9199 0001065  97.0380 263.0744 15.34405714 39453

JSON: /api/v1/satellites/65637 · /tle

For live sub-satellite position, see the globe view (requires WebGL).

§ Visibility from observer

Set your observer location to see the next 7 days of passes ≥ 10°. The values pass through the URL so the page stays shareable.

No JS? Fill the form by hand. The geolocation button needs JavaScript.